Weather History for Lyndonville, VT

Change the Weather History Date:

Wednesday, November 21, 2012

  Actual Average (K1V4) Record (K1V4)
Temperature  
Mean Temperature 38 °F 34 °F  
Max Temperature 49 °F 42 °F 67 °F (1991)
Min Temperature 27 °F 26 °F -7 °F (1933)
Degree Days  
Heating Degree Days 27 31  
Month to date heating degree days 569  
Since 1 July heating degree days 1356  
Cooling Degree Days 0 0  
Month to date cooling degree days 0  
Year to date cooling degree days 433  
Moisture  
Dew Point 22 °F    
Average Humidity 61    
Maximum Humidity 87    
Minimum Humidity 24    
Precipitation  
Precipitation 0.00 in 0.11 in 1.26 in (1954)
Month to date precipitation 2.41  
Year to date precipitation 35.43  
Sea Level Pressure  
Sea Level Pressure 30.22 in    
Wind  
Wind Speed 1 mph (South)    
Max Wind Speed 6 mph    
Max Gust Speed -    
Visibility 10 miles    
Events      
T = Trace of Precipitation, MM = Missing Value Source: NWS Daily Summary

Daily Weather History Graph

Daily Weather History Graph

Search for Another Location

Airport:

Trip Planner

Search our weather history database for the weather conditions in past years. The results will help you decide how hot, cold, wet, or windy it might be!

Date:

Astronomy

Nov. 21, 2012 Rise Set
Actual Time 6:53 AM EST 4:14 PM EST
Civil Twilight 6:20 AM EST 4:46 PM EST
Nautical Twilight 5:45 AM EST 5:22 PM EST
Astronomical Twilight 5:10 AM EST 5:57 PM EST
Moon 12:43 PM EST (11/21) No Moon Set
Length of Visible Light 10h 25m
Length of Day
9h 21m
First Quarter, 61% of the Moon is Illuminated
Nov 21
First Quarter
Nov 28
Full
Dec 6
Last Quarter
Dec 13
New
Dec 20
First Quarter

Hourly Weather History & Observations

Time (EST) Temp. Windchill Dew Point Humidity Pressure Visibility Wind Dir Wind Speed Gust Speed Precip Events Conditions
12:15 AM 32.5 °F - 25.2 °F 74% 30.18 in 10.0 mi Calm Calm - N/A   Overcast
12:35 AM 32.5 °F - 25.2 °F 74% 30.18 in 10.0 mi Calm Calm - N/A   Overcast
12:55 AM 32.2 °F - 25.7 °F 77% 30.18 in 10.0 mi Calm Calm - N/A   Overcast
1:15 AM 32.5 °F - 25.3 °F 75% 30.17 in 10.0 mi Calm Calm - N/A   Overcast
1:35 AM 32.2 °F - 25.2 °F 75% 30.17 in 10.0 mi Calm Calm - N/A   Overcast
1:55 AM 32.0 °F - 25.7 °F 78% 30.18 in 10.0 mi Calm Calm - N/A   Overcast
2:15 AM 32.0 °F - 25.3 °F 76% 30.18 in 10.0 mi Calm Calm - N/A   Mostly Cloudy
2:35 AM 31.5 °F - 25.3 °F 78% 30.18 in 10.0 mi Calm Calm - N/A   Mostly Cloudy
2:55 AM 30.7 °F - 25.3 °F 80% 30.18 in 10.0 mi Calm Calm - N/A   Mostly Cloudy
3:15 AM 31.1 °F - 25.5 °F 80% 30.18 in 10.0 mi Calm Calm - N/A   Mostly Cloudy
3:35 AM 32.0 °F - 25.5 °F 77% 30.18 in 10.0 mi Calm Calm - N/A   Mostly Cloudy
3:55 AM 31.8 °F - 25.2 °F 76% 30.19 in 10.0 mi Calm Calm - N/A   Scattered Clouds
4:15 AM 30.4 °F - 24.8 °F 80% 30.18 in 10.0 mi Calm Calm - N/A   Clear
4:35 AM 30.6 °F - 25.3 °F 81% 30.19 in 10.0 mi Calm Calm - N/A   Scattered Clouds
4:55 AM 30.7 °F - 25.3 °F 80% 30.20 in 10.0 mi Calm Calm - N/A   Mostly Cloudy
5:15 AM 31.5 °F - 25.5 °F 79% 30.20 in 10.0 mi Calm Calm - N/A   Overcast
5:35 AM 29.5 °F - 24.8 °F 83% 30.20 in 10.0 mi Calm Calm - N/A   Overcast
5:55 AM 29.7 °F - 25.5 °F 85% 30.21 in 10.0 mi Calm Calm - N/A   Mostly Cloudy
6:15 AM 29.7 °F - 25.2 °F 83% 30.22 in 10.0 mi Calm Calm - N/A   Overcast
6:55 AM 27.9 °F - 24.4 °F 87% 30.23 in 10.0 mi Calm Calm - N/A   Overcast
7:15 AM 28.2 °F - 24.6 °F 86% 30.24 in 10.0 mi Calm Calm - N/A   Scattered Clouds
7:35 AM 30.2 °F - 26.1 °F 85% 30.25 in 10.0 mi Calm Calm - N/A   Clear
7:55 AM 29.3 °F - 25.0 °F 84% 30.25 in 10.0 mi Calm Calm - N/A   Clear
8:15 AM 31.5 °F - 26.4 °F 82% 30.25 in 10.0 mi Calm Calm - N/A   Scattered Clouds
8:35 AM 33.3 °F - 27.3 °F 79% 30.25 in 10.0 mi Calm Calm - N/A   Mostly Cloudy
8:55 AM 33.8 °F - 27.5 °F 78% 30.25 in 10.0 mi Calm Calm - N/A   Overcast
9:15 AM 35.4 °F - 27.1 °F 72% 30.25 in 10.0 mi Calm Calm - N/A   Overcast
9:35 AM 36.5 °F - 27.7 °F 70% 30.25 in 10.0 mi Calm Calm - N/A   Overcast
9:55 AM 37.8 °F - 26.8 °F 65% 30.25 in 10.0 mi Calm Calm - N/A   Overcast
10:15 AM 38.5 °F - 26.1 °F 61% 30.24 in 10.0 mi Calm Calm - N/A   Mostly Cloudy
10:35 AM 40.6 °F 38.6 °F 26.2 °F 57% 30.24 in 10.0 mi West 3.5 mph - N/A   Clear
10:55 AM 42.4 °F 40.7 °F 24.1 °F 48% 30.23 in 10.0 mi SSW 3.5 mph - N/A   Clear
11:15 AM 43.9 °F 40.5 °F 23.4 °F 44% 30.22 in 10.0 mi South 5.8 mph - N/A   Clear
11:55 AM 45.9 °F - 21.6 °F 38% 30.21 in 10.0 mi Calm Calm - N/A   Clear
12:15 PM 46.9 °F - 18.1 °F 32% 30.20 in 10.0 mi SSE 4.6 mph - N/A   Clear
12:35 PM 47.3 °F - 18.7 °F 32% 30.21 in 10.0 mi Calm Calm - N/A   Clear
12:55 PM 48.7 °F - 16.9 °F 28% 30.20 in 10.0 mi SSW 3.5 mph - N/A   Clear
1:15 PM 48.6 °F - 16.0 °F 27% 30.20 in 10.0 mi Calm Calm - N/A   Clear
1:35 PM 49.3 °F - 14.7 °F 25% 30.20 in 10.0 mi Calm Calm - N/A   Clear
1:55 PM 49.3 °F - 15.3 °F 26% 30.20 in 10.0 mi SSW 3.5 mph - N/A   Clear
2:15 PM 49.1 °F - 15.1 °F 26% 30.20 in 10.0 mi SE 3.5 mph - N/A   Clear
2:35 PM 49.1 °F - 14.7 °F 25% 30.20 in 10.0 mi SSE 3.5 mph - N/A   Clear
2:55 PM 48.6 °F - 12.9 °F 24% 30.20 in 10.0 mi South 5.8 mph - N/A   Clear
3:15 PM 48.4 °F - 14.5 °F 26% 30.20 in 10.0 mi South 3.5 mph - N/A   Clear
3:35 PM 47.5 °F - 13.6 °F 26% 30.21 in 10.0 mi South 3.5 mph - N/A   Clear
3:55 PM 45.7 °F 43.4 °F 16.3 °F 31% 30.21 in 10.0 mi South 4.6 mph - N/A   Clear
4:15 PM 45.0 °F 42.6 °F 17.8 °F 34% 30.21 in 10.0 mi South 4.6 mph - N/A   Clear
4:35 PM 44.8 °F 43.3 °F 18.5 °F 35% 30.22 in 10.0 mi South 3.5 mph - N/A   Clear
4:55 PM 44.8 °F 42.4 °F 18.5 °F 35% 30.22 in 10.0 mi South 4.6 mph - N/A   Clear
5:15 PM 43.9 °F - 18.9 °F 37% 30.22 in 10.0 mi Calm Calm - N/A   Clear
5:35 PM 43.0 °F - 18.9 °F 38% 30.22 in 10.0 mi Calm Calm - N/A   Clear
5:55 PM 39.4 °F - 19.8 °F 45% 30.23 in 10.0 mi Calm Calm - N/A   Clear
6:15 PM 37.8 °F - 20.1 °F 49% 30.23 in 10.0 mi Calm Calm - N/A   Clear
6:35 PM 35.1 °F - 20.7 °F 56% 30.23 in 10.0 mi Calm Calm - N/A   Clear
6:55 PM 36.1 °F - 20.1 °F 52% 30.23 in 10.0 mi Calm Calm - N/A   Clear
7:15 PM 35.1 °F - 20.7 °F 56% 30.23 in 10.0 mi Calm Calm - N/A   Clear
7:35 PM 34.2 °F - 20.7 °F 58% 30.23 in 10.0 mi Calm Calm - N/A   Clear
7:55 PM 32.0 °F - 20.5 °F 63% 30.23 in 10.0 mi Calm Calm - N/A   Clear
8:15 PM 31.3 °F - 20.3 °F 64% 30.23 in 10.0 mi Calm Calm - N/A   Clear
8:35 PM 31.5 °F - 20.3 °F 63% 30.24 in 10.0 mi Calm Calm - N/A   Clear
8:55 PM 30.6 °F - 20.8 °F 67% 30.24 in 10.0 mi Calm Calm - N/A   Clear
9:15 PM 30.7 °F - 21.2 °F 68% 30.23 in 10.0 mi Calm Calm - N/A   Clear
9:35 PM 31.1 °F - 21.2 °F 67% 30.24 in 10.0 mi Calm Calm - N/A   Clear
9:55 PM 31.5 °F - 21.2 °F 66% 30.24 in 10.0 mi Calm Calm - N/A   Clear
10:15 PM 29.7 °F - 21.2 °F 71% 30.24 in 10.0 mi Calm Calm - N/A   Clear
10:35 PM 30.0 °F - 21.4 °F 70% 30.24 in 10.0 mi Calm Calm - N/A   Clear
10:55 PM 29.3 °F - 21.2 °F 72% 30.24 in 10.0 mi Calm Calm - N/A   Clear
11:15 PM 28.2 °F - 21.4 °F 76% 30.24 in 10.0 mi Calm Calm - N/A   Clear
11:35 PM 29.5 °F - 21.2 °F 71% 30.24 in 10.0 mi Calm Calm - N/A   Clear
11:55 PM 28.8 °F - 21.4 °F 74% 30.24 in 10.0 mi Calm Calm - N/A   Clear